Location: Grums
(59.3529°N, 13.1129°E)
Time: 08:56:47
(UTC+02:00)

Envisat - Pass Details

Date: 30 September 2021
Orbit: 764 x 766 km, 98.2° (Epoch: 16 October)

Event Time Altitude Azimuth Distance (km) Brightness Sun altitude
Rises 06:06:37 0° 18° (NNE) 3,247 6.6 -8.9°
Reaches altitude 10° 06:09:01 10° 24° (NNE) 2,316 6.0 -8.6°
Maximum altitude 06:13:59 50° 99° (E) 977 4.1 -8.0°
Drops below altitude 10° 06:18:54 10° 175° (S) 2,300 5.5 -7.4°
Sets 06:21:16 0° 181° (S) 3,222 6.2 -7.1°
